Tracking 28790 objects as of 19-Apr-2024
HD Live streaming from Space Station
objects crossing your sky now

FENGYUN 1C DEB

Track FENGYUN 1C DEB now!
10-day predictions


NORAD ID: 30167
Int'l Code: 1999-025TY
Perigee: 641.5 km
Apogee: 860.0 km
Inclination: 99.0 °
Period: 99.7 minutes
Semi major axis: 7121 km
RCS: 0.053 m2 (small)
Launch date: May 10, 1999
Source: People's Republic of China (PRC)
Launch site: Taiyaun Space Center, China (TSC)

Note: This is SATELLITE DEBRIS
Your satellite tracking list
Your tracking list is empty




NASA's NSSDC Master Catalog

Two Line Element Set (TLE):
1 30167U 99025TY  24109.63752493  .00004487  00000-0  11377-2 0  9991
2 30167  99.0308 151.3828 0153428 154.4412 326.6140 14.44517710906382
Source of the keplerian elements: AFSPC